Regional Weather Roundup
Issued by NWS Portland, ME

Home | Current Version | Previous Version | Text Only | Print | Product List | Glossary On
Versions: 1 2 3 4 5 6 7 8 9 10 11 12 13 14 15 16 17 18 19 20 21 22 23 24 25 26 27 28 29 30 31 32 33 34 35 36 37 38 39 40 41 42 43 44 45 46 47 48 49 50
827
ASUS41 KGYX 140010
RWRGYX
WEATHER ROUNDUP FOR MAINE AND NEW HAMPSHIRE
NATIONAL WEATHER SERVICE GRAY ME
700 PM EST SAT FEB 13 2016

MEZ002-005-006-010-012-015-018-020-021-024-026-027-029-140100-
MAINE

CITY           SKY/WX    TMP DP  RH WIND       PRES   REMARKS
PORTLAND       PTCLDY     4 -14  43 NW22      29.99R WCI -18
6HR MIN TEMP:   4; 6HR MAX TEMP:  22;

SANFORD        CLEAR      0 -18  42 NW20G31   30.01R WCI -22
BAR HARBOR     CLOUDY    10   5  79 NW10G24   29.85R WCI  -3
WISCASSET      MOCLDY     4 -14  43 NW13G23   29.97R WCI -13
6HR MIN TEMP:   4; 6HR MAX TEMP:  23;

ROCKLAND       FLURRIES   9  -1  64 N12G32    29.89R WCI  -6
FRYEBURG       CLEAR     -4 -22  41 W10G20    29.99R WCI -21
6HR MIN TEMP:  -4; 6HR MAX TEMP:  18;

LEWISTONAUBURN CLEAR      0 -18  42 NW15G23   29.96R WCI -20
AUGUSTA        PTCLDY    -1 -17  46 NW17G26   29.95R WCI -22
6HR MIN TEMP:  -1; 6HR MAX TEMP:  18; 6HR PCP: TRACE;

WATERVILLE     CLOUDY     0 -14  51 NW16G24   29.91R WCI -20
BANGOR         LGT SNOW   6  -1  73 NW21      29.89R BLWGSNOWWCI -14
6HR MIN TEMP:   6; 6HR MAX TEMP:  13; 6HR PCP:  0.01;

GREENVILLE       N/A    -10 -17  71 NW13G26   29.82R WCI -30
6HR MIN TEMP: -10; 6HR MAX TEMP:   9;

MILLINOCKET    LGT SNOW   4  -5  66 NW17G26   29.88R WCI -16
6HR MIN TEMP:   4; 6HR MAX TEMP:  16; 6HR PCP: TRACE;

HOULTON        CLOUDY    10   5  80 NW5       29.80R
6HR MIN TEMP:   9; 6HR MAX TEMP:  14;

PRESQUE ISLE   LGT SNOW   9   5  84 NW9       29.83R FOG
6HR MIN TEMP:   9; 6HR MAX TEMP:  15; 6HR PCP: TRACE;

FRENCHVILLE    LGT SNOW   3  -3  76 NW17      29.80R WCI -17
6HR MIN TEMP:   3; 6HR MAX TEMP:   9; 6HR PCP: TRACE;

CARIBOU        CLOUDY     9   3  77 NW10      29.81R HAZE    WCI  -5
6HR MIN TEMP:   8; 6HR MAX TEMP:  11; 6HR PCP: TRACE;

$$

NHZ002-005-008-009-011-012-014-140100-
NEW HAMPSHIRE

CITY           SKY/WX    TMP DP  RH WIND       PRES   REMARKS
PORTSMOUTH     PTCLDY     3 -13  47 NW20G32   30.03R WCI -18
ROCHESTER      CLEAR      0 -19  40 NW13G29   30.01R WCI -18
6HR MIN TEMP:   0; 6HR MAX TEMP:  19; 6HR PCP: TRACE;

NASHUA         CLEAR      3 -17  39 NW23      30.08R WCI -19
MANCHESTER     PTCLDY     3 -18  37 NW15G26   30.06R WCI -16
6HR MIN TEMP:   3; 6HR MAX TEMP:  19;

CONCORD        MOCLDY     0 -16  46 NW23G32   30.07R WCI -23
6HR MIN TEMP:   0; 6HR MAX TEMP:  18;

LACONIA        CLEAR     -6 -24  41 NW21G30   30.07R WCI -30
PLYMOUTH       FAIR      -7 -24  43 NW9G22    30.10R
BERLIN         CLOUDY   -13 -28  47 W9G18     30.04R
6HR MIN TEMP: -13; 6HR MAX TEMP:   9;

WHITEFIELD     MOCLDY   -12 -26  49 NW13G20   30.08R WCI -33
6HR MIN TEMP: -12; 6HR MAX TEMP:   8;

JAFFREY        MOCLDY    -2 -22  38 W14G24    30.00R WCI -21
6HR MIN TEMP:  -2; 6HR MAX TEMP:  13;

KEENE          CLEAR      0 -24  32 NW13G22   30.10R WCI -18
LEBANON        CLOUDY    -5 -19  51 N14G22    30.13R WCI -25
6HR MIN TEMP:  -5; 6HR MAX TEMP:  11; 6HR PCP: TRACE;

MT WASHINGTON  MOCLDY   -33 -42  61 W36         N/A  WCI -73
6HR MIN TEMP: -36; 6HR MAX TEMP: -16;

$$

VTZ005-007-008-140100-
VERMONT

CITY           SKY/WX    TMP DP  RH WIND       PRES   REMARKS
ST JOHNSBURY     N/A    -12 -24  55 MISG      30.15R
MONTPELIER     LGT SNOW -14 -22  67 NW15G24   30.14R WCI -37
BURLINGTON     FLURRIES -10 -23  52 N15       30.28R WCI -32
$$

MAZ007-012-024-CTZ003-RIZ002-NYZ038-NYZ072-140100-
SOUTHERN NEW ENGLAND AND NY

CITY           SKY/WX    TMP DP  RH WIND       PRES   REMARKS
BOSTON         PTCLDY     6 -14  39 W20G37    30.07R WCI -14
WORCESTER      CLEAR     -4 -20  46 W22G36    30.01R WCI -28
NANTUCKET      CLEAR     13  -4  46 W28G35    30.00R WCI  -8
PROVIDENCE     CLEAR      3 -18  37 NW21G32   30.13R WCI -18
HARTFORD       PTCLDY     0 -19  40 NW17G24   30.20R WCI -21
ALBANY         PTCLDY    -2 -18  46 W17G29    30.26R WCI -23
NEW YORK CITY  PTCLDY    11  -7  44 NW28G37   30.28R WCI -10
$$

ANZ081-ANZ082-ANZ150-NHZ014-MEZ023>029-140100-
COASTAL MARINE OBSERVATIONS

STATION/POSITION TIME  TEMP    WIND        PRES    WAVE
                       AIR SEA DIR/SP/G            HT/PER
                 (UTC) (F)     (DEG/KT/KT) (MB)    (FT/S)
MOUNT DESERT ROC 0000   16     320/ 31/ 35 1008.9R
MATINICUS ROCK   0000          310/ 30/ 34 1010.9R
ISLE OF SHOALS   0000    5     320/ 33/ 37 1015.6R
JEFFREYS LEDGE   2304      43                N/A     8/ 5
CASHES LEDGE BUO 2350   18 42  310/ 23/ 31 1010.8R   9/ 7
GEORGES BANK BUO 2250   31 44              1006.1   10/ 8
$$

.............KEY..............
   WCI - WIND CHILL
   TC  - TEMPERATURE IN CELSIUS
   VSB - VISIBILITY IN MILES
   HX  - HEAT INDEX
   FAIR- INDICATES FEW OR NO CLOUDS BELOW 12,000 FT, WITH NO
         SIGNIFICANT WEATHER AND/OR OBSTRUCTIONS TO VISIBILITY.






USA.gov is the U.S. government's official web portal to all federal, state and local government web resources and services.